Weather History for Holland, MI

Change the Weather History Date:

Sunday, August 11, 2013

  Actual Average Record
Temperature  
Mean Temperature 68 °F 72 °F  
Max Temperature 80 °F 81 °F 90 °F (2007)
Min Temperature 56 °F 62 °F 41 °F (1967)
Degree Days  
Heating Degree Days 0 0  
Month to date heating degree days 2 0  
Since 1 June heating degree days 44 54  
Since 1 July heating degree days 10 6  
Cooling Degree Days 3 7  
Month to date cooling degree days 46 77  
Year to date cooling degree days 571 500  
Since 1 June cooling degree days 481 458  
Growing Degree Days 18 (Base 50)    
Moisture  
Dew Point 56 °F    
Average Humidity 63    
Maximum Humidity 86    
Minimum Humidity 40    
Precipitation  
Precipitation T in 0.10 in 0.87 in (1949)
Month to date precipitation 0.46 1.08  
Year to date precipitation 26.65 20.72  
Sea Level Pressure  
Sea Level Pressure 30.11 in    
Wind  
Wind Speed 2 mph (WSW)    
Max Wind Speed 9 mph    
Max Gust Speed 14 mph    
Visibility 10 miles    
Events Rain    
T = Trace of Precipitation, MM = Missing Value Source: NWS Daily Summary

Daily Weather History Graph

Daily Weather History Graph

Search for Another Location

Airport:

Trip Planner

Search our weather history database for the weather conditions in past years. The results will help you decide how hot, cold, wet, or windy it might be!

Date:

Astronomy

Aug. 11, 2013 Rise Set
Actual Time 6:46 AM EDT 8:51 PM EDT
Civil Twilight 6:15 AM EDT 9:22 PM EDT
Nautical Twilight 5:37 AM EDT 10:00 PM EDT
Astronomical Twilight 4:56 AM EDT 10:41 PM EDT
Moon 11:42 AM EDT (8/11) 10:57 PM EDT (8/11)
Length of Visible Light 15h 06m
Length of Day
14h 04m
Waxing Crescent, 22% of the Moon is Illuminated
Aug 11
Waxing Crescent
Aug 14
First Quarter
Aug 20
Full
Aug 28
Last Quarter
Sep 5
New

Hourly Weather History & Observations

Time (EDT) Temp. Dew Point Humidity Pressure Visibility Wind Dir Wind Speed Gust Speed Precip Events Conditions
12:53 AM 63.0 °F 57.0 °F 81% 30.12 in 10.0 mi Calm Calm - N/A   Overcast
1:53 AM 62.1 °F 55.9 °F 80% 30.12 in 10.0 mi Calm Calm - N/A   Overcast
2:53 AM 59.0 °F 54.0 °F 83% 30.13 in 10.0 mi Calm Calm - N/A   Clear
3:53 AM 60.1 °F 55.9 °F 86% 30.13 in 10.0 mi Calm Calm - N/A   Mostly Cloudy
4:53 AM 60.1 °F 55.0 °F 83% 30.13 in 10.0 mi Calm Calm - N/A   Partly Cloudy
5:53 AM 57.0 °F 54.0 °F 89% 30.13 in 10.0 mi Calm Calm - N/A   Clear
6:53 AM 57.0 °F 53.1 °F 87% 30.13 in 10.0 mi Calm Calm - N/A   Clear
7:53 AM 60.1 °F 55.9 °F 86% 30.14 in 10.0 mi Calm Calm - N/A   Clear
8:53 AM 69.1 °F 57.0 °F 65% 30.13 in 10.0 mi Calm Calm - N/A   Clear
9:53 AM 73.0 °F 54.0 °F 51% 30.14 in 10.0 mi Calm Calm - N/A   Clear
10:53 AM 77.0 °F 52.0 °F 42% 30.13 in 10.0 mi Calm Calm - N/A   Clear
11:53 AM 78.1 °F 53.1 °F 42% 30.13 in 10.0 mi Variable 3.5 mph - N/A   Clear
12:53 PM 79.0 °F 54.0 °F 42% 30.13 in 10.0 mi WSW 8.1 mph - N/A   Partly Cloudy
1:53 PM 78.1 °F 55.0 °F 45% 30.14 in 10.0 mi WSW 8.1 mph - N/A   Partly Cloudy
2:53 PM 73.0 °F 54.0 °F 51% 30.13 in 10.0 mi West 6.9 mph - 0.00 in Rain Light Rain
3:53 PM 73.9 °F 55.0 °F 52% 30.11 in 10.0 mi West 5.8 mph - 0.00 in   Overcast
4:53 PM 73.0 °F 55.0 °F 53% 30.11 in 10.0 mi West 6.9 mph - N/A   Overcast
5:53 PM 73.9 °F 55.9 °F 53% 30.09 in 10.0 mi Calm Calm - N/A   Overcast
6:53 PM 73.0 °F 57.0 °F 57% 30.08 in 10.0 mi Calm Calm - N/A   Overcast
7:53 PM 72.0 °F 57.9 °F 61% 30.07 in 10.0 mi Calm Calm - N/A   Overcast
8:53 PM 71.1 °F 59.0 °F 66% 30.06 in 10.0 mi Calm Calm - N/A   Overcast
9:53 PM 70.0 °F 60.1 °F 71% 30.06 in 10.0 mi Calm Calm - N/A   Overcast
10:53 PM 70.0 °F 60.1 °F 71% 30.06 in 10.0 mi Calm Calm - N/A   Overcast
11:53 PM 69.1 °F 60.1 °F 73% 30.06 in 10.0 mi SE 3.5 mph - N/A   Overcast